TimeEST,TemperatureF,Dew PointF,Humidity,Sea Level PressureIn,VisibilityMPH,Wind Direction,Wind SpeedMPH,Gust SpeedMPH,PrecipitationIn,Events,Conditions,WindDirDegrees,DateUTC
12:14 AM,39.2,37.4,93,29.91,2.5,WSW,4.6,-,N/A,,Overcast,240,2012-12-09 05:14:00
12:35 AM,39.2,37.4,93,29.92,1.8,Variable,5.8,-,N/A,,Overcast,0,2012-12-09 05:35:00
12:51 AM,39.0,37.9,96,29.93,1.0,Variable,4.6,-,N/A,,Overcast,0,2012-12-09 05:51:00
1:11 AM,39.2,37.4,93,29.94,2.5,Variable,3.5,-,N/A,,Overcast,0,2012-12-09 06:11:00
1:34 AM,39.2,37.4,93,29.95,3.0,Variable,4.6,-,N/A,,Overcast,0,2012-12-09 06:34:00
2:01 AM,39.2,37.4,93,29.96,2.5,Calm,Calm,-,N/A,,Overcast,0,2012-12-09 07:01:00
2:06 AM,39.2,37.4,93,29.96,3.0,Variable,3.5,-,N/A,,Overcast,0,2012-12-09 07:06:00
2:16 AM,37.4,37.4,100,29.97,2.5,Calm,Calm,-,N/A,,Mostly Cloudy,0,2012-12-09 07:16:00
2:24 AM,37.4,37.4,100,29.97,5.0,Calm,Calm,-,N/A,,Scattered Clouds,0,2012-12-09 07:24:00
2:51 AM,39.9,37.9,93,29.98,10.0,Variable,4.6,-,N/A,,Clear,0,2012-12-09 07:51:00
3:51 AM,37.9,36.0,93,30.00,10.0,Variable,3.5,-,N/A,,Clear,0,2012-12-09 08:51:00
4:51 AM,39.9,37.0,89,30.04,10.0,West,3.5,-,N/A,,Clear,270,2012-12-09 09:51:00
5:51 AM,39.9,36.0,86,30.09,10.0,Variable,3.5,-,N/A,,Clear,0,2012-12-09 10:51:00
6:51 AM,37.0,33.1,86,30.13,10.0,Calm,Calm,-,N/A,,Clear,0,2012-12-09 11:51:00
7:51 AM,39.0,30.9,73,30.16,10.0,WNW,5.8,-,N/A,,Clear,300,2012-12-09 12:51:00
8:51 AM,39.9,30.9,70,30.21,10.0,Calm,Calm,-,N/A,,Clear,0,2012-12-09 13:51:00
9:51 AM,42.1,32.0,67,30.23,10.0,NNW,9.2,-,N/A,,Clear,330,2012-12-09 14:51:00
10:51 AM,42.1,30.0,62,30.22,10.0,NW,8.1,-,N/A,,Clear,320,2012-12-09 15:51:00
11:51 AM,44.1,28.0,53,30.21,10.0,NW,11.5,-,N/A,,Clear,320,2012-12-09 16:51:00
12:51 PM,45.0,28.0,52,30.20,10.0,NW,10.4,-,N/A,,Clear,310,2012-12-09 17:51:00
1:51 PM,45.0,27.0,49,30.22,10.0,NW,5.8,-,N/A,,Clear,310,2012-12-09 18:51:00
2:51 PM,44.1,26.1,49,30.24,10.0,Variable,3.5,-,N/A,,Clear,0,2012-12-09 19:51:00
4:51 PM,37.9,26.1,62,30.26,10.0,NW,3.5,-,N/A,,Clear,310,2012-12-09 21:51:00
5:51 PM,37.9,28.0,68,30.28,10.0,Calm,Calm,-,N/A,,Clear,0,2012-12-09 22:51:00
6:51 PM,37.0,28.9,73,30.30,10.0,Calm,Calm,-,N/A,,Partly Cloudy,0,2012-12-09 23:51:00
7:51 PM,30.0,27.0,88,30.28,10.0,Calm,Calm,-,N/A,,Partly Cloudy,0,2012-12-10 00:51:00
8:51 PM,34.0,28.9,82,30.26,10.0,NNW,3.5,-,N/A,,Overcast,330,2012-12-10 01:51:00
9:51 PM,35.1,28.0,76,30.23,10.0,Calm,Calm,-,N/A,,Overcast,0,2012-12-10 02:51:00
10:51 PM,36.0,28.0,73,30.21,10.0,ENE,3.5,-,N/A,,Overcast,60,2012-12-10 03:51:00
11:59 PM,35.6,30.2,81,30.19,9.0,Calm,Calm,-,0.00,Rain,Light Rain,0,2012-12-10 04:59:00